| time (UTC) | temp F | wind direction | speed MPH | gust MPH | rain 1hr in | rain 24hr in | rain mn in | humidity % | barometer mb |
| 20260506082239 | 77 | 190 | 4.0 | 9.0 | 0.00 | 0.00 | 0.00 | 1 | 1005.7 |
| 20260506081506 | 77 | 190 | 4.0 | 9.0 | 0.00 | 0.00 | 0.00 | 1 | 1005.8 |
| 20260506081005 | 77 | 190 | 4.0 | 9.0 | 0.00 | 0.00 | 0.00 | 1 | 1005.7 |
| 20260506080505 | 77 | 190 | 5.0 | 10.0 | 0.00 | 0.00 | 0.00 | 1 | 1005.6 |
| 20260506073234 | 77 | 190 | 4.0 | 9.0 | 0.00 | 0.00 | 0.00 | 1 | 1006.2 |
| 20260506072456 | 77 | 190 | 4.0 | 9.0 | 0.00 | 0.00 | 0.00 | 1 | 1006.5 |
| 20260506071958 | 77 | 190 | 5.0 | 12.0 | 0.00 | 0.00 | 0.00 | 1 | 1006.4 |
| 20260506071457 | 77 | 190 | 4.0 | 12.0 | 0.00 | 0.00 | 0.00 | 1 | 1006.4 |
| 20260506070956 | 77 | 190 | 4.0 | 7.0 | 0.00 | 0.00 | 0.00 | 1 | 1006.5 |
| 20260506070457 | 77 | 190 | 4.0 | 8.0 | 0.00 | 0.00 | 0.00 | 1 | 1006.6 |
| 20260506062444 | 76 | 190 | 5.0 | 11.0 | 0.00 | 0.00 | 0.00 | 1 | 1006.7 |
| 20260506061439 | 76 | 190 | 5.0 | 9.0 | 0.00 | 0.00 | 0.00 | 1 | 1006.7 |
| 20260506060940 | 76 | 190 | 5.0 | 9.0 | 0.00 | 0.00 | 0.00 | 1 | 1006.7 |
| 20260506060440 | 76 | 190 | 4.0 | 9.0 | 0.00 | 0.00 | 0.00 | 1 | 1006.7 |
| 20260506050933 | 76 | 190 | 4.0 | 8.0 | 0.00 | 0.00 | 0.00 | 1 | 1006.8 |
| 20260506050428 | 76 | 190 | 3.0 | 7.0 | 0.00 | 0.00 | 0.00 | 1 | 1006.8 |
| 20260506044922 | 76 | 190 | 4.0 | 7.0 | 0.00 | 0.00 | 0.00 | 1 | 1006.8 |
| 20260506044419 | 77 | 190 | 4.0 | 7.0 | 0.00 | 0.00 | 0.00 | 1 | 1006.8 |
| 20260506043918 | 77 | 190 | 4.0 | 7.0 | 0.00 | 0.00 | 0.00 | 1 | 1006.9 |
| 20260506043420 | 77 | 190 | 4.0 | 9.0 | 0.00 | 0.00 | 0.00 | 1 | 1006.8 |
| 20260506042918 | 77 | 190 | 4.0 | 9.0 | 0.00 | 0.00 | 0.00 | 1 | 1006.8 |
| 20260506042418 | 76 | 190 | 4.0 | 9.0 | 0.00 | 0.00 | 0.00 | 1 | 1006.8 |
| 20260506041918 | 77 | 190 | 5.0 | 9.0 | 0.00 | 0.00 | 0.00 | 1 | 1006.6 |
| 20260506041420 | 77 | 190 | 6.0 | 13.0 | 0.00 | 0.00 | 0.00 | 1 | 1006.5 |
| 20260506040918 | 77 | 190 | 6.0 | 13.0 | 0.00 | 0.00 | 0.00 | 1 | 1006.4 |
| 20260506040418 | 77 | 190 | 6.0 | 11.0 | 0.00 | 0.00 | 0.00 | 1 | 1006.4 |
| 20260506040151 | 77 | 190 | 7.0 | 11.0 | 0.00 | 0.00 | 0.00 | 1 | 1006.3 |
| 20260506035413 | 77 | 190 | 7.0 | 12.0 | 0.00 | 0.00 | 0.00 | 1 | 1006.3 |
| 20260506034913 | 77 | 190 | 6.0 | 12.0 | 0.00 | 0.00 | 0.00 | 1 | 1006.1 |
| 20260506034413 | 77 | 190 | 5.0 | 12.0 | 0.00 | 0.00 | 0.00 | 1 | 1006.1 |
| 20260506033909 | 77 | 190 | 5.0 | 12.0 | 0.00 | 0.00 | 0.00 | 1 | 1006.1 |
| 20260506033641 | 77 | 190 | 5.0 | 11.0 | 0.00 | 0.00 | 0.00 | 1 | 1006.1 |
| 20260506033412 | 77 | 190 | 5.0 | 11.0 | 0.00 | 0.00 | 0.00 | 1 | 1006.1 |
| 20260506033139 | 77 | 190 | 4.0 | 11.0 | 0.00 | 0.00 | 0.00 | 1 | 1006.1 |
| 20260506032413 | 77 | 190 | 4.0 | 8.0 | 0.00 | 0.00 | 0.00 | 1 | 1006.2 |
| 20260506031909 | 77 | 190 | 5.0 | 9.0 | 0.00 | 0.00 | 0.00 | 1 | 1006.1 |
| 20260506031404 | 77 | 190 | 4.0 | 9.0 | 0.00 | 0.00 | 0.00 | 1 | 1006.1 |
| 20260506030904 | 77 | 190 | 4.0 | 8.0 | 0.00 | 0.00 | 0.00 | 1 | 1005.9 |
| 20260506030404 | 77 | 190 | 5.0 | 10.0 | 0.00 | 0.00 | 0.00 | 1 | 1005.9 |
| 20260506025903 | 77 | 190 | 5.0 | 10.0 | 0.00 | 0.00 | 0.00 | 1 | 1006.0 |
| 20260506025404 | 77 | 190 | 6.0 | 11.0 | 0.00 | 0.00 | 0.00 | 1 | 1006.0 |
| 20260506024917 | 78 | 190 | 6.0 | 11.0 | 0.00 | 0.00 | 0.00 | 1 | 1006.0 |
| 20260506024404 | 78 | 190 | 6.0 | 13.0 | 0.00 | 0.00 | 0.00 | 1 | 1005.9 |
| 20260506023904 | 78 | 190 | 6.0 | 13.0 | 0.00 | 0.00 | 0.00 | 1 | 1005.9 |
| 20260506023402 | 78 | 190 | 5.0 | 10.0 | 0.00 | 0.00 | 0.00 | 1 | 1005.7 |
| 20260506022901 | 78 | 190 | 5.0 | 10.0 | 0.00 | 0.00 | 0.00 | 1 | 1005.6 |
| 20260506022400 | 78 | 190 | 5.0 | 10.0 | 0.00 | 0.00 | 0.00 | 1 | 1005.5 |
| 20260506022134 | 78 | 190 | 5.0 | 9.0 | 0.00 | 0.00 | 0.00 | 2 | 1005.5 |
| 20260506021404 | 78 | 190 | 5.0 | 9.0 | 0.00 | 0.00 | 0.00 | 3 | 1005.4 |
| 20260506020856 | 78 | 190 | 4.0 | 8.0 | 0.00 | 0.00 | 0.00 | 4 | 1005.5 |
| 20260506020635 | 78 | 190 | 5.0 | 9.0 | 0.00 | 0.00 | 0.00 | 6 | 1005.4 |
| 20260506015858 | 78 | 190 | 4.0 | 9.0 | 0.00 | 0.00 | 0.00 | 7 | 1005.3 |
| 20260506015404 | 78 | 190 | 4.0 | 11.0 | 0.00 | 0.00 | 0.00 | 10 | 1005.2 |
| 20260506014901 | 78 | 190 | 5.0 | 11.0 | 0.00 | 0.00 | 0.00 | 12 | 1005.1 |
| 20260506014627 | 78 | 190 | 5.0 | 10.0 | 0.00 | 0.00 | 0.00 | 13 | 1005.0 |
| 20260506013857 | 78 | 190 | 5.0 | 10.0 | 0.00 | 0.00 | 0.00 | 15 | 1004.9 |
| 20260506013402 | 78 | 190 | 4.0 | 8.0 | 0.00 | 0.00 | 0.00 | 17 | 1004.8 |
| 20260506012905 | 78 | 190 | 5.0 | 13.0 | 0.00 | 0.00 | 0.00 | 19 | 1004.8 |
| 20260506012633 | 78 | 190 | 5.0 | 13.0 | 0.00 | 0.00 | 0.00 | 22 | 1004.7 |
| 20260506012124 | 78 | 190 | 5.0 | 11.0 | 0.00 | 0.00 | 0.00 | 25 | 1004.6 |
| 20260506011401 | 79 | 190 | 5.0 | 9.0 | 0.00 | 0.00 | 0.00 | 27 | 1004.5 |
| 20260506010900 | 79 | 190 | 5.0 | 11.0 | 0.00 | 0.00 | 0.00 | 29 | 1004.5 |
| 20260506010625 | 79 | 190 | 6.0 | 11.0 | 0.00 | 0.00 | 0.00 | 31 | 1004.4 |
| 20260506005901 | 79 | 190 | 6.0 | 12.0 | 0.00 | 0.00 | 0.00 | 33 | 1004.4 |
| 20260506005347 | 79 | 190 | 6.0 | 12.0 | 0.00 | 0.00 | 0.00 | 34 | 1004.3 |
| 20260506004847 | 79 | 190 | 5.0 | 12.0 | 0.00 | 0.00 | 0.00 | 35 | 1004.3 |
| 20260506004349 | 80 | 190 | 5.0 | 12.0 | 0.00 | 0.00 | 0.00 | 37 | 1004.3 |
| 20260506003852 | 80 | 190 | 5.0 | 10.0 | 0.00 | 0.00 | 0.00 | 39 | 1004.2 |
| 20260506003348 | 80 | 190 | 5.0 | 10.0 | 0.00 | 0.00 | 0.00 | 42 | 1004.1 |
| 20260506002848 | 80 | 190 | 6.0 | 10.0 | 0.00 | 0.00 | 0.00 | 43 | 1004.2 |
| 20260506001843 | 80 | 190 | 6.0 | 10.0 | 0.00 | 0.00 | 0.00 | 46 | 1004.1 |
| 20260506001342 | 80 | 190 | 5.0 | 10.0 | 0.00 | 0.00 | 0.00 | 47 | 1004.2 |
| 20260506000842 | 81 | 190 | 5.0 | 10.0 | 0.00 | 0.00 | 0.00 | 48 | 1004.3 |
| 20260506000342 | 81 | 190 | 6.0 | 12.0 | 0.00 | 0.00 | 0.00 | 50 | 1004.3 |
| 20260505235844 | 81 | 190 | 7.0 | 12.0 | 0.00 | 0.00 | 0.00 | 52 | 1004.3 |
| 20260505235353 | 81 | 190 | 6.0 | 12.0 | 0.00 | 0.00 | 0.00 | 53 | 1004.1 |
| 20260505235110 | 81 | 190 | 6.0 | 11.0 | 0.00 | 0.00 | 0.00 | 52 | 1004.1 |
| 20260505234340 | 81 | 190 | 7.0 | 14.0 | 0.00 | 0.00 | 0.00 | 50 | 1004.1 |
| 20260505233838 | 81 | 190 | 6.0 | 14.0 | 0.00 | 0.00 | 0.00 | 52 | 1004.1 |
| 20260505233338 | 81 | 190 | 6.0 | 12.0 | 0.00 | 0.00 | 0.00 | 53 | 1004.0 |
| 20260505232841 | 81 | 190 | 7.0 | 12.0 | 0.00 | 0.00 | 0.00 | 54 | 1003.9 |
| 20260505232337 | 81 | 190 | 7.0 | 15.0 | 0.00 | 0.00 | 0.00 | 55 | 1004.1 |
| 20260505231830 | 82 | 190 | 8.0 | 15.0 | 0.00 | 0.00 | 0.00 | 55 | 1004.1 |
| 20260505231332 | 82 | 190 | 7.0 | 14.0 | 0.00 | 0.00 | 0.00 | 57 | 1004.0 |
| 20260505230832 | 82 | 190 | 6.0 | 12.0 | 0.00 | 0.00 | 0.00 | 54 | 1003.9 |
| 20260505230333 | 82 | 190 | 7.0 | 12.0 | 0.00 | 0.00 | 0.00 | 55 | 1003.8 |
| 20260505225832 | 82 | 190 | 6.0 | 11.0 | 0.00 | 0.00 | 0.00 | 56 | 1003.7 |
| 20260505225332 | 82 | 190 | 7.0 | 13.0 | 0.00 | 0.00 | 0.00 | 57 | 1003.9 |
| 20260505224829 | 82 | 190 | 7.0 | 14.0 | 0.00 | 0.00 | 0.00 | 58 | 1003.9 |
| 20260505224331 | 82 | 190 | 7.0 | 14.0 | 0.00 | 0.00 | 0.00 | 59 | 1003.9 |
| 20260505223828 | 83 | 190 | 7.0 | 13.0 | 0.00 | 0.00 | 0.00 | 59 | 1003.8 |
| 20260505223604 | 83 | 190 | 7.0 | 13.0 | 0.00 | 0.00 | 0.00 | 58 | 1003.9 |
| 20260505222829 | 83 | 190 | 8.0 | 14.0 | 0.00 | 0.00 | 0.00 | 59 | 1004.1 |
| 20260505222331 | 84 | 190 | 8.0 | 14.0 | 0.00 | 0.00 | 0.00 | 61 | 1004.0 |
| 20260505222113 | 84 | 190 | 8.0 | 16.0 | 0.00 | 0.00 | 0.00 | 61 | 1003.9 |
| 20260505221331 | 84 | 190 | 9.0 | 16.0 | 0.00 | 0.00 | 0.00 | 62 | 1003.9 |
| 20260505220324 | 84 | 190 | 8.0 | 15.0 | 0.00 | 0.00 | 0.00 | 62 | 1003.8 |
| 20260505215825 | 85 | 190 | 8.0 | 16.0 | 0.00 | 0.00 | 0.00 | 62 | 1004.0 |
| 20260505215556 | 85 | 190 | 8.0 | 16.0 | 0.00 | 0.00 | 0.00 | 62 | 1004.1 |
| 20260505214828 | 85 | 190 | 8.0 | 16.0 | 0.00 | 0.00 | 0.00 | 61 | 1004.0 |
| 20260505214326 | 85 | 190 | 8.0 | 16.0 | 0.00 | 0.00 | 0.00 | 61 | 1004.0 |
| 20260505213821 | 84 | 190 | 7.0 | 15.0 | 0.00 | 0.00 | 0.00 | 61 | 1004.0 |
| 20260505213322 | 84 | 190 | 7.0 | 15.0 | 0.00 | 0.00 | 0.00 | 61 | 1004.1 |
| 20260505212821 | 85 | 190 | 7.0 | 15.0 | 0.00 | 0.00 | 0.00 | 62 | 1004.2 |
| 20260505212554 | 85 | 190 | 7.0 | 15.0 | 0.00 | 0.00 | 0.00 | 62 | 1004.3 |
| 20260505211319 | 85 | 190 | 7.0 | 16.0 | 0.00 | 0.00 | 0.00 | 62 | 1004.4 |
| 20260505210815 | 85 | 190 | 7.0 | 14.0 | 0.00 | 0.00 | 0.00 | 62 | 1004.5 |
| 20260505210317 | 85 | 190 | 7.0 | 14.0 | 0.00 | 0.00 | 0.00 | 62 | 1004.6 |
| 20260505210044 | 85 | 190 | 6.0 | 13.0 | 0.00 | 0.00 | 0.00 | 62 | 1004.7 |
| 20260505205541 | 85 | 190 | 7.0 | 15.0 | 0.00 | 0.00 | 0.00 | 62 | 1004.7 |
| 20260505204811 | 84 | 190 | 8.0 | 18.0 | 0.00 | 0.00 | 0.00 | 62 | 1004.8 |
| 20260505204312 | 84 | 190 | 8.0 | 16.0 | 0.00 | 0.00 | 0.00 | 62 | 1004.8 |
| 20260505203804 | 84 | 190 | 8.0 | 16.0 | 0.00 | 0.00 | 0.00 | 62 | 1004.9 |
| 20260505203304 | 85 | 190 | 8.0 | 12.0 | 0.00 | 0.00 | 0.00 | 62 | 1005.0 |
| 20260505202803 | 84 | 190 | 7.0 | 13.0 | 0.00 | 0.00 | 0.00 | 61 | 1005.0 |
| 20260505202306 | 84 | 190 | 7.0 | 13.0 | 0.00 | 0.00 | 0.00 | 61 | 1005.1 |
| 20260505201801 | 84 | 190 | 7.0 | 13.0 | 0.00 | 0.00 | 0.00 | 62 | 1005.3 |
| 20260505201259 | 85 | 190 | 7.0 | 13.0 | 0.00 | 0.00 | 0.00 | 61 | 1005.3 |
| 20260505200756 | 85 | 190 | 7.0 | 15.0 | 0.00 | 0.00 | 0.00 | 61 | 1005.3 |
| 20260505195756 | 85 | 190 | 8.0 | 13.0 | 0.00 | 0.00 | 0.00 | 61 | 1005.3 |
| 20260505195256 | 85 | 190 | 8.0 | 16.0 | 0.00 | 0.00 | 0.00 | 61 | 1005.3 |
| 20260505194758 | 85 | 190 | 8.0 | 16.0 | 0.00 | 0.00 | 0.00 | 61 | 1005.3 |
| 20260505194530 | 85 | 190 | 8.0 | 13.0 | 0.00 | 0.00 | 0.00 | 60 | 1005.5 |
| 20260505194028 | 84 | 190 | 7.0 | 13.0 | 0.00 | 0.00 | 0.00 | 59 | 1005.5 |
| 20260505193256 | 84 | 190 | 6.0 | 13.0 | 0.00 | 0.00 | 0.00 | 58 | 1005.6 |
| 20260505192756 | 83 | 190 | 6.0 | 13.0 | 0.00 | 0.00 | 0.00 | 57 | 1005.8 |
| 20260505192300 | 83 | 190 | 7.0 | 14.0 | 0.00 | 0.00 | 0.00 | 54 | 1005.9 |
| 20260505191257 | 83 | 190 | 7.0 | 14.0 | 0.00 | 0.00 | 0.00 | 57 | 1005.9 |
| 20260505190756 | 83 | 190 | 7.0 | 13.0 | 0.00 | 0.00 | 0.00 | 59 | 1006.0 |
| 20260505190257 | 83 | 190 | 7.0 | 12.0 | 0.00 | 0.00 | 0.00 | 55 | 1006.1 |
| 20260505185756 | 83 | 190 | 7.0 | 12.0 | 0.00 | 0.00 | 0.00 | 55 | 1006.1 |
| 20260505185256 | 82 | 190 | 6.0 | 12.0 | 0.00 | 0.00 | 0.00 | 56 | 1006.2 |
| 20260505185033 | 82 | 190 | 6.0 | 13.0 | 0.00 | 0.00 | 0.00 | 56 | 1006.2 |
| 20260505184255 | 82 | 190 | 6.0 | 13.0 | 0.00 | 0.00 | 0.00 | 57 | 1006.2 |
| 20260505183756 | 83 | 190 | 6.0 | 12.0 | 0.00 | 0.00 | 0.00 | 54 | 1006.2 |
| 20260505183254 | 83 | 190 | 7.0 | 12.0 | 0.00 | 0.00 | 0.00 | 57 | 1006.3 |
| 20260505182755 | 83 | 190 | 7.0 | 13.0 | 0.00 | 0.00 | 0.00 | 53 | 1006.3 |
| 20260505182254 | 82 | 190 | 7.0 | 13.0 | 0.00 | 0.00 | 0.00 | 53 | 1006.2 |
| 20260505181755 | 82 | 190 | 6.0 | 13.0 | 0.00 | 0.00 | 0.00 | 50 | 1006.4 |
| 20260505181301 | 82 | 190 | 6.0 | 13.0 | 0.00 | 0.00 | 0.00 | 50 | 1006.5 |
| 20260505180750 | 81 | 190 | 7.0 | 13.0 | 0.00 | 0.00 | 0.00 | 53 | 1006.5 |
| 20260505180250 | 82 | 190 | 6.0 | 11.0 | 0.00 | 0.00 | 0.00 | 53 | 1006.4 |
| 20260505175750 | 82 | 190 | 6.0 | 12.0 | 0.00 | 0.00 | 0.00 | 53 | 1006.4 |
| 20260505175249 | 82 | 190 | 7.0 | 12.0 | 0.00 | 0.00 | 0.00 | 50 | 1006.5 |
| 20260505174750 | 81 | 190 | 7.0 | 12.0 | 0.00 | 0.00 | 0.00 | 53 | 1006.5 |
| 20260505174251 | 81 | 190 | 8.0 | 16.0 | 0.00 | 0.00 | 0.00 | 51 | 1006.6 |
| 20260505173745 | 81 | 190 | 8.0 | 16.0 | 0.00 | 0.00 | 0.00 | 51 | 1006.6 |
| 20260505173248 | 81 | 190 | 7.0 | 12.0 | 0.00 | 0.00 | 0.00 | 50 | 1006.7 |
| 20260505172747 | 81 | 190 | 7.0 | 14.0 | 0.00 | 0.00 | 0.00 | 47 | 1006.7 |
| 20260505172245 | 81 | 190 | 7.0 | 14.0 | 0.00 | 0.00 | 0.00 | 50 | 1006.7 |
| 20260505171746 | 81 | 190 | 6.0 | 14.0 | 0.00 | 0.00 | 0.00 | 47 | 1006.7 |
| 20260505171246 | 80 | 190 | 6.0 | 11.0 | 0.00 | 0.00 | 0.00 | 44 | 1006.9 |
| 20260505170747 | 80 | 190 | 6.0 | 12.0 | 0.00 | 0.00 | 0.00 | 37 | 1007.0 |
| 20260505170247 | 80 | 190 | 6.0 | 12.0 | 0.00 | 0.00 | 0.00 | 37 | 1007.0 |
| 20260505165746 | 80 | 190 | 7.0 | 13.0 | 0.00 | 0.00 | 0.00 | 40 | 1007.0 |
| 20260505165518 | 80 | 190 | 7.0 | 13.0 | 0.00 | 0.00 | 0.00 | 42 | 1007.1 |
| 20260505164747 | 80 | 190 | 6.0 | 12.0 | 0.00 | 0.00 | 0.00 | 41 | 1007.0 |
| 20260505164241 | 80 | 190 | 7.0 | 14.0 | 0.00 | 0.00 | 0.00 | 36 | 1006.9 |
| 20260505164018 | 80 | 190 | 7.0 | 14.0 | 0.00 | 0.00 | 0.00 | 36 | 1006.9 |
| 20260505163240 | 79 | 190 | 6.0 | 13.0 | 0.00 | 0.00 | 0.00 | 28 | 1006.9 |
| 20260505162733 | 79 | 190 | 7.0 | 17.0 | 0.00 | 0.00 | 0.00 | 24 | 1006.9 |
| 20260505162231 | 79 | 190 | 8.0 | 17.0 | 0.00 | 0.00 | 0.00 | 27 | 1006.9 |
| 20260505161230 | 78 | 190 | 7.0 | 14.0 | 0.00 | 0.00 | 0.00 | 18 | 1007.0 |
| 20260505160729 | 78 | 190 | 6.0 | 14.0 | 0.00 | 0.00 | 0.00 | 4 | 1007.0 |
| 20260505160228 | 77 | 190 | 5.0 | 10.0 | 0.00 | 0.00 | 0.00 | 1 | 1007.0 |
| 20260505153217 | 76 | 190 | 6.0 | 12.0 | 0.00 | 0.00 | 0.00 | 1 | 1006.9 |
| 20260505152718 | 76 | 190 | 6.0 | 11.0 | 0.00 | 0.00 | 0.00 | 1 | 1006.9 |
| 20260505152217 | 76 | 190 | 7.0 | 12.0 | 0.00 | 0.00 | 0.00 | 1 | 1007.0 |
| 20260505151717 | 76 | 190 | 6.0 | 12.0 | 0.00 | 0.00 | 0.00 | 1 | 1006.9 |
| 20260505151216 | 76 | 190 | 5.0 | 10.0 | 0.00 | 0.00 | 0.00 | 1 | 1006.9 |
| 20260505150717 | 76 | 190 | 5.0 | 11.0 | 0.00 | 0.00 | 0.00 | 1 | 1006.8 |
| 20260505150216 | 75 | 190 | 4.0 | 11.0 | 0.00 | 0.00 | 0.00 | 1 | 1006.8 |
| 20260505140209 | 74 | 190 | 6.0 | 12.0 | 0.00 | 0.00 | 0.00 | 1 | 1006.7 |
| 20260505124624 | 0 | 0.0 | 0.0 | 0.00 | 0.00 | 0.00 | 1006.4 | ||
| 20260505124031 | 0 | 0.0 | 0.0 | 0.00 | 0.00 | 0.00 | 1006.2 | ||
| 20260505123302 | 0 | 0.0 | 0.0 | 0.00 | 0.00 | 0.00 | 1006.2 | ||
| 20260505122754 | 0 | 0.0 | 0.0 | 0.00 | 0.00 | 0.00 | 1006.2 | ||
| 20260505122253 | 0 | 0.0 | 0.0 | 0.00 | 0.00 | 0.00 | 1006.2 | ||
| 20260505121701 | 0 | 0.0 | 0.0 | 0.00 | 0.00 | 0.00 | 1006.0 | ||
| 20260505121058 | 0 | 0.0 | 0.0 | 0.00 | 0.00 | 0.00 | 1006.1 | ||
| 20260505120550 | 0 | 0.0 | 0.0 | 0.00 | 0.00 | 0.00 | 1005.9 | ||
| 20260505115957 | 0 | 0.0 | 0.0 | 0.00 | 0.00 | 0.00 | 1006.0 | ||
| 20260505115719 | 0 | 0.0 | 0.0 | 0.00 | 0.00 | 0.00 | 1006.1 | ||
| 20260505114859 | 0 | 0.0 | 0.0 | 0.00 | 0.00 | 0.00 | 1006.1 | ||
| 20260505114359 | 0 | 0.0 | 0.0 | 0.00 | 0.00 | 0.00 | 1006.1 | ||
| 20260505113850 | 0 | 0.0 | 0.0 | 0.00 | 0.00 | 0.00 | 1006.2 | ||
| 20260505113522 | 0 | 0.0 | 0.0 | 0.00 | 0.00 | 0.00 | 1006.1 | ||
| 20260505112058 | 70 | 190 | 4.0 | 8.0 | 0.00 | 0.00 | 0.00 | 1 | 1006.0 |
| 20260505111534 | 70 | 190 | 4.0 | 8.0 | 0.00 | 0.00 | 0.00 | 1 | 1006.0 |
| 20260505111032 | 71 | 190 | 4.0 | 8.0 | 0.00 | 0.00 | 0.00 | 1 | 1005.8 |
| 20260505110534 | 71 | 190 | 4.0 | 8.0 | 0.00 | 0.00 | 0.00 | 1 | 1005.5 |
| 20260505102018 | 70 | 190 | 4.0 | 7.0 | 0.00 | 0.00 | 0.00 | 1 | 1005.8 |
| 20260505101515 | 70 | 190 | 4.0 | 8.0 | 0.00 | 0.00 | 0.00 | 1 | 1005.8 |
| 20260505101015 | 70 | 190 | 4.0 | 8.0 | 0.00 | 0.00 | 0.00 | 1 | 1005.9 |
| 20260505100513 | 70 | 190 | 3.0 | 7.0 | 0.00 | 0.00 | 0.00 | 1 | 1005.9 |
| 20260505100012 | 70 | 190 | 3.0 | 8.0 | 0.00 | 0.00 | 0.00 | 1 | 1006.2 |
| 20260505095745 | 70 | 190 | 3.0 | 8.0 | 0.00 | 0.00 | 0.00 | 1 | 1006.2 |
| 20260505095012 | 70 | 190 | 4.0 | 9.0 | 0.00 | 0.00 | 0.00 | 1 | 1006.0 |
| 20260505094513 | 70 | 190 | 4.0 | 9.0 | 0.00 | 0.00 | 0.00 | 1 | 1006.0 |
| 20260505094010 | 70 | 190 | 3.0 | 9.0 | 0.00 | 0.00 | 0.00 | 1 | 1005.9 |
| 20260505093510 | 70 | 190 | 4.0 | 9.0 | 0.00 | 0.00 | 0.00 | 1 | 1005.9 |
| 20260505093007 | 70 | 190 | 4.0 | 8.0 | 0.00 | 0.00 | 0.00 | 1 | 1005.9 |
| 20260505092739 | 70 | 190 | 3.0 | 7.0 | 0.00 | 0.00 | 0.00 | 1 | 1006.0 |
| 20260505092004 | 70 | 190 | 3.0 | 7.0 | 0.00 | 0.00 | 0.00 | 1 | 1006.3 |
| 20260505090956 | 70 | 190 | 4.0 | 8.0 | 0.00 | 0.00 | 0.00 | 1 | 1006.2 |
| 20260505090452 | 70 | 190 | 4.0 | 7.0 | 0.00 | 0.00 | 0.00 | 1 | 1006.1 |
| 20260505085452 | 70 | 190 | 3.0 | 8.0 | 0.00 | 0.00 | 0.00 | 1 | 1006.1 |
| 20260505085002 | 70 | 190 | 4.0 | 8.0 | 0.00 | 0.00 | 0.00 | 1 | 1006.2 |
| 20260505084452 | 70 | 190 | 4.0 | 10.0 | 0.00 | 0.00 | 0.00 | 1 | 1006.3 |
| 20260505083955 | 70 | 190 | 5.0 | 10.0 | 0.00 | 0.00 | 0.00 | 1 | 1006.4 |
| 20260505083446 | 71 | 190 | 5.0 | 10.0 | 0.00 | 0.00 | 0.00 | 1 | 1006.4 |
| 20260505082947 | 71 | 190 | 4.0 | 10.0 | 0.00 | 0.00 | 0.00 | 1 | 1006.5 |
| 20260505082448 | 71 | 190 | 5.0 | 8.0 | 0.00 | 0.00 | 0.00 | 1 | 1006.6 |